Location: Civry
(47.2902°N, 4.6156°E)
Time: 13:08:44
(UTC+00:00)

Cosmos 2151 - Pass Details

Date: 09 April 2020
Orbit: 582 x 600 km, 82.5° (Epoch: 02 June)

Event Time Altitude Azimuth Distance (km) Brightness Sun altitude
Rises 21:01:33 0° 350° (N) 2,818 7.3 -24.2°
Reaches altitude 10° 21:03:46 10° 350° (N) 1,914 6.3 -24.4°
Enters shadow 21:07:31 70° 349° (N) 625 3.1 -24.9°
